Time,TemperatureF,DewpointF,PressureIn,WindDirection,WindDirectionDegrees,WindSpeedMPH,WindSpeedGustMPH,Humidity,HourlyPrecipIn,Conditions,Clouds,dailyrainin,SoftwareType,DateUTC
2013-03-09 00:04:00,32.5,19.0,31.09,NW,306,0.0,0.0,57,0.00,,---,0.00,VWS V14.01,2013-03-09 08:04:00,
2013-03-09 00:09:00,32.5,19.0,31.10,WNW,300,0.0,0.0,57,0.00,,---,0.00,VWS V14.01,2013-03-09 08:09:00,
2013-03-09 00:14:00,32.5,19.4,31.10,NW,309,0.0,0.0,58,0.00,,---,0.00,VWS V14.01,2013-03-09 08:14:00,
2013-03-09 00:19:00,32.5,19.0,31.10,WNW,295,0.0,0.0,57,0.00,,---,0.00,VWS V14.01,2013-03-09 08:19:00,
2013-03-09 00:24:00,32.5,19.0,31.10,NW,309,0.0,0.0,57,0.00,,---,0.00,VWS V14.01,2013-03-09 08:24:00,
2013-03-09 00:29:00,32.7,19.2,31.10,WNW,296,0.0,0.0,57,0.00,,---,0.00,VWS V14.01,2013-03-09 08:29:00,
2013-03-09 00:35:00,32.7,19.2,31.10,WNW,300,0.0,0.0,57,0.00,,---,0.00,VWS V14.01,2013-03-09 08:35:00,
2013-03-09 00:40:00,32.7,19.2,31.10,WNW,298,0.0,0.0,57,0.00,,---,0.00,VWS V14.01,2013-03-09 08:40:00,
2013-03-09 00:45:00,32.5,19.0,31.10,NW,311,0.0,0.0,57,0.00,,---,0.00,VWS V14.01,2013-03-09 08:45:00,
2013-03-09 00:50:00,32.7,19.2,31.10,NW,309,0.0,0.0,57,0.00,,---,0.00,VWS V14.01,2013-03-09 08:50:00,
2013-03-09 00:55:00,32.7,18.8,31.10,WNW,298,0.0,0.0,56,0.00,,---,0.00,VWS V14.01,2013-03-09 08:55:00,
2013-03-09 01:00:00,32.7,18.8,31.10,NW,311,0.0,0.0,56,0.00,,---,0.00,VWS V14.01,2013-03-09 09:00:00,
2013-03-09 01:05:00,32.7,18.8,31.10,NW,305,0.0,0.0,56,0.00,,---,0.00,VWS V14.01,2013-03-09 09:05:00,
2013-03-09 01:10:00,32.7,18.8,31.10,WNW,287,0.0,0.0,56,0.00,,---,0.00,VWS V14.01,2013-03-09 09:10:00,
2013-03-09 01:15:00,32.7,18.8,31.10,WNW,300,0.0,0.0,56,0.00,,---,0.00,VWS V14.01,2013-03-09 09:15:00,
2013-03-09 01:20:00,32.7,18.3,31.10,WNW,297,0.0,0.0,55,0.00,,---,0.00,VWS V14.01,2013-03-09 09:20:00,
2013-03-09 01:25:00,32.7,18.3,31.10,WNW,287,0.0,0.0,55,0.00,,---,0.00,VWS V14.01,2013-03-09 09:25:00,
2013-03-09 01:30:00,32.8,18.0,31.10,NW,310,0.0,0.0,54,0.00,,---,0.00,VWS V14.01,2013-03-09 09:30:00,
2013-03-09 01:35:00,32.8,18.0,31.10,NW,310,0.0,0.0,54,0.00,,---,0.00,VWS V14.01,2013-03-09 09:35:00,
2013-03-09 01:41:00,32.8,18.0,31.10,NW,311,0.0,0.0,54,0.00,,---,0.00,VWS V14.01,2013-03-09 09:41:00,
2013-03-09 01:46:00,32.8,18.0,31.10,NW,311,0.0,0.0,54,0.00,,---,0.00,VWS V14.01,2013-03-09 09:46:00,
2013-03-09 01:51:00,32.9,18.1,31.10,NW,311,0.0,0.0,54,0.00,,---,0.00,VWS V14.01,2013-03-09 09:51:00,
2013-03-09 01:56:00,32.9,18.1,31.10,NW,312,0.0,0.0,54,0.00,,---,0.00,VWS V14.01,2013-03-09 09:56:00,
2013-03-09 02:01:00,32.9,18.1,31.10,NW,315,0.0,0.0,54,0.00,,---,0.00,VWS V14.01,2013-03-09 10:01:00,
2013-03-09 02:06:00,32.9,18.1,31.11,NW,317,0.0,0.0,54,0.00,,---,0.00,VWS V14.01,2013-03-09 10:06:00,
2013-03-09 02:11:00,32.9,18.1,31.11,NW,321,0.0,0.0,54,0.00,,---,0.00,VWS V14.01,2013-03-09 10:11:00,
2013-03-09 02:16:00,32.9,18.1,31.11,WNW,303,0.0,0.0,54,0.00,,---,0.00,VWS V14.01,2013-03-09 10:16:00,
2013-03-09 02:21:00,32.9,18.1,31.11,NW,304,0.0,0.0,54,0.00,,---,0.00,VWS V14.01,2013-03-09 10:21:00,
2013-03-09 02:26:00,32.9,18.5,31.11,NW,325,0.0,0.0,55,0.00,,---,0.00,VWS V14.01,2013-03-09 10:26:00,
2013-03-09 02:31:00,32.9,18.9,31.11,NW,323,0.0,0.0,56,0.00,,---,0.00,VWS V14.01,2013-03-09 10:31:00,
2013-03-09 02:36:00,32.9,18.5,31.11,NW,323,0.0,0.0,55,0.00,,---,0.00,VWS V14.01,2013-03-09 10:36:00,
2013-03-09 02:42:00,32.8,18.4,31.11,NW,315,0.0,0.0,55,0.00,,---,0.00,VWS V14.01,2013-03-09 10:42:00,
2013-03-09 02:47:00,32.8,18.4,31.11,NW,311,0.0,0.0,55,0.00,,---,0.00,VWS V14.01,2013-03-09 10:47:00,
2013-03-09 02:52:00,32.7,18.3,31.11,WNW,303,0.0,0.0,55,0.00,,---,0.00,VWS V14.01,2013-03-09 10:52:00,
2013-03-09 02:57:00,32.7,18.8,31.11,WNW,291,0.0,0.0,56,0.00,,---,0.00,VWS V14.01,2013-03-09 10:57:00,
2013-03-09 03:02:00,32.5,18.1,31.11,WNW,290,0.0,0.0,55,0.00,,---,0.00,VWS V14.01,2013-03-09 11:02:00,
2013-03-09 03:07:00,32.4,18.5,31.11,WNW,290,0.0,0.0,56,0.00,,---,0.00,VWS V14.01,2013-03-09 11:07:00,
2013-03-09 03:12:00,32.2,18.3,31.11,WNW,294,0.0,0.0,56,0.00,,---,0.00,VWS V14.01,2013-03-09 11:12:00,
2013-03-09 03:17:00,32.2,18.7,31.11,WNW,300,0.0,0.0,57,0.00,,---,0.00,VWS V14.01,2013-03-09 11:17:00,
2013-03-09 03:22:00,32.2,18.3,31.11,WNW,292,0.0,0.0,56,0.00,,---,0.00,VWS V14.01,2013-03-09 11:22:00,
2013-03-09 03:27:00,32.1,18.2,31.11,WNW,284,0.0,0.0,56,0.00,,---,0.00,VWS V14.01,2013-03-09 11:27:00,
2013-03-09 03:32:00,31.9,18.0,31.11,WNW,282,0.0,0.0,56,0.00,,---,0.00,VWS V14.01,2013-03-09 11:32:00,
2013-03-09 03:37:00,31.8,17.9,31.11,West,281,0.0,0.0,56,0.00,,---,0.00,VWS V14.01,2013-03-09 11:37:00,
2013-03-09 03:42:00,31.8,17.9,31.11,WNW,284,0.0,0.0,56,0.00,,---,0.00,VWS V14.01,2013-03-09 11:42:00,
2013-03-09 03:48:00,31.6,17.7,31.11,WNW,282,0.0,0.0,56,0.00,,---,0.00,VWS V14.01,2013-03-09 11:48:00,
2013-03-09 03:53:00,31.5,17.6,31.11,West,269,0.0,0.0,56,0.00,,---,0.00,VWS V14.01,2013-03-09 11:53:00,
2013-03-09 03:58:00,31.3,17.4,31.10,West,266,0.0,0.0,56,0.00,,---,0.00,VWS V14.01,2013-03-09 11:58:00,
2013-03-09 04:03:00,31.2,17.8,31.10,West,261,0.0,0.0,57,0.00,,---,0.00,VWS V14.01,2013-03-09 12:03:00,
2013-03-09 04:08:00,31.0,17.6,31.10,West,263,0.0,0.0,57,0.00,,---,0.00,VWS V14.01,2013-03-09 12:08:00,
2013-03-09 04:13:00,30.9,17.5,31.10,West,263,0.0,0.0,57,0.00,,---,0.00,VWS V14.01,2013-03-09 12:13:00,
2013-03-09 04:18:00,30.9,17.9,31.10,West,262,0.0,0.0,58,0.00,,---,0.00,VWS V14.01,2013-03-09 12:18:00,
2013-03-09 04:23:00,30.7,17.7,31.10,West,263,0.0,0.0,58,0.00,,---,0.00,VWS V14.01,2013-03-09 12:23:00,
2013-03-09 04:28:00,30.7,17.3,31.10,West,269,0.0,0.0,57,0.00,,---,0.00,VWS V14.01,2013-03-09 12:28:00,
2013-03-09 04:33:00,30.7,17.3,31.10,West,277,0.0,0.0,57,0.00,,---,0.00,VWS V14.01,2013-03-09 12:33:00,
2013-03-09 04:38:00,30.9,17.5,31.10,WNW,298,0.0,0.0,57,0.00,,---,0.00,VWS V14.01,2013-03-09 12:38:00,
2013-03-09 04:43:00,31.2,17.3,31.10,WNW,300,0.0,0.0,56,0.00,,---,0.00,VWS V14.01,2013-03-09 12:43:00,
2013-03-09 04:48:00,31.3,17.0,31.10,NW,310,0.0,0.0,55,0.00,,---,0.00,VWS V14.01,2013-03-09 12:48:00,
2013-03-09 04:53:00,31.5,17.2,31.11,NW,308,0.0,0.0,55,0.00,,---,0.00,VWS V14.01,2013-03-09 12:53:00,
2013-03-09 04:59:00,31.6,16.9,31.11,WNW,300,0.0,0.0,54,0.00,,---,0.00,VWS V14.01,2013-03-09 12:59:00,
2013-03-09 05:04:00,31.6,16.9,31.11,WNW,300,0.0,0.0,54,0.00,,---,0.00,VWS V14.01,2013-03-09 13:04:00,
2013-03-09 05:09:00,31.6,16.9,31.10,WNW,300,0.0,0.0,54,0.00,,---,0.00,VWS V14.01,2013-03-09 13:09:00,
2013-03-09 05:14:00,31.6,16.5,31.10,WNW,300,0.0,0.0,53,0.00,,---,0.00,VWS V14.01,2013-03-09 13:14:00,
2013-03-09 05:19:00,31.6,16.5,31.10,WNW,300,0.0,0.0,53,0.00,,---,0.00,VWS V14.01,2013-03-09 13:19:00,
2013-03-09 05:24:00,31.8,16.6,31.10,WNW,300,0.0,0.0,53,0.00,,---,0.00,VWS V14.01,2013-03-09 13:24:00,
2013-03-09 05:29:00,31.8,17.1,31.10,WNW,302,0.0,0.0,54,0.00,,---,0.00,VWS V14.01,2013-03-09 13:29:00,
2013-03-09 05:34:00,31.9,16.7,31.10,NW,305,0.0,0.0,53,0.00,,---,0.00,VWS V14.01,2013-03-09 13:34:00,
2013-03-09 05:39:00,32.1,16.9,31.10,NW,305,0.0,0.0,53,0.00,,---,0.00,VWS V14.01,2013-03-09 13:39:00,
2013-03-09 05:44:00,32.1,16.9,31.10,NW,305,0.0,0.0,53,0.00,,---,0.00,VWS V14.01,2013-03-09 13:44:00,
2013-03-09 05:49:00,32.1,16.9,31.10,NW,305,0.0,0.0,53,0.00,,---,0.00,VWS V14.01,2013-03-09 13:49:00,
2013-03-09 05:54:00,32.1,16.9,31.10,NW,305,0.0,0.0,53,0.00,,---,0.00,VWS V14.01,2013-03-09 13:54:00,
2013-03-09 06:00:00,31.9,16.7,31.10,NW,305,0.0,0.0,53,0.00,,---,0.00,VWS V14.01,2013-03-09 14:00:00,
2013-03-09 06:05:00,31.9,17.2,31.10,NW,305,0.0,0.0,54,0.00,,---,0.00,VWS V14.01,2013-03-09 14:05:00,
2013-03-09 06:10:00,31.8,17.1,31.10,NW,305,0.0,0.0,54,0.00,,---,0.00,VWS V14.01,2013-03-09 14:10:00,
2013-03-09 06:15:00,31.6,17.3,31.10,NW,305,0.0,0.0,55,0.00,,---,0.00,VWS V14.01,2013-03-09 14:15:00,
2013-03-09 06:20:00,31.5,17.2,31.10,NW,304,0.0,0.0,55,0.00,,---,0.00,VWS V14.01,2013-03-09 14:20:00,
2013-03-09 06:25:00,31.3,17.0,31.09,WNW,301,0.0,0.0,55,0.00,,---,0.00,VWS V14.01,2013-03-09 14:25:00,
2013-03-09 06:30:00,31.0,16.7,31.09,WNW,292,0.0,0.0,55,0.00,,---,0.00,VWS V14.01,2013-03-09 14:30:00,
2013-03-09 06:35:00,30.9,16.6,31.09,WNW,288,0.0,0.0,55,0.00,,---,0.00,VWS V14.01,2013-03-09 14:35:00,
2013-03-09 06:40:00,30.7,16.9,31.09,West,273,0.0,0.0,56,0.00,,---,0.00,VWS V14.01,2013-03-09 14:40:00,
2013-03-09 06:46:00,30.7,16.9,31.09,West,261,0.0,0.0,56,0.00,,---,0.00,VWS V14.01,2013-03-09 14:46:00,
2013-03-09 06:51:00,30.7,16.9,31.09,WSW,257,0.0,0.0,56,0.00,,---,0.00,VWS V14.01,2013-03-09 14:51:00,
2013-03-09 06:56:00,30.7,16.9,31.09,WSW,252,0.0,0.0,56,0.00,,---,0.00,VWS V14.01,2013-03-09 14:56:00,
2013-03-09 07:01:00,30.7,16.9,31.09,WSW,251,0.0,0.0,56,0.00,,---,0.00,VWS V14.01,2013-03-09 15:01:00,
2013-03-09 07:06:00,30.9,17.1,31.09,WSW,251,0.0,0.0,56,0.00,,---,0.00,VWS V14.01,2013-03-09 15:06:00,
2013-03-09 07:11:00,31.2,16.9,31.09,WSW,247,0.0,0.0,55,0.00,,---,0.00,VWS V14.01,2013-03-09 15:11:00,
2013-03-09 07:16:00,31.3,15.3,31.09,SSW,209,0.0,0.0,51,0.00,,---,0.00,VWS V14.01,2013-03-09 15:16:00,
2013-03-09 07:21:00,31.3,14.8,31.09,SSW,209,0.0,0.0,50,0.00,,---,0.00,VWS V14.01,2013-03-09 15:21:00,
2013-03-09 07:26:00,31.3,15.3,31.09,SSW,206,0.0,0.0,51,0.00,,---,0.00,VWS V14.01,2013-03-09 15:26:00,
2013-03-09 07:31:00,31.2,16.1,31.09,SSW,201,0.0,0.0,53,0.00,,---,0.00,VWS V14.01,2013-03-09 15:31:00,
2013-03-09 07:36:00,31.0,15.9,31.09,SSW,200,0.0,0.0,53,0.00,,---,0.00,VWS V14.01,2013-03-09 15:36:00,
2013-03-09 07:42:00,31.0,16.3,31.09,SW,217,0.0,0.0,54,0.00,,---,0.00,VWS V14.01,2013-03-09 15:42:00,
2013-03-09 07:47:00,31.0,16.7,31.09,SW,218,0.0,0.0,55,0.00,,---,0.00,VWS V14.01,2013-03-09 15:47:00,
2013-03-09 07:52:00,31.2,16.5,31.09,SSW,212,0.0,0.0,54,0.00,,---,0.00,VWS V14.01,2013-03-09 15:52:00,
2013-03-09 07:57:00,31.3,16.6,31.09,SSW,207,0.0,0.0,54,0.00,,---,0.00,VWS V14.01,2013-03-09 15:57:00,
2013-03-09 08:02:00,31.5,17.2,31.09,SW,225,0.0,0.0,55,0.00,,---,0.00,VWS V14.01,2013-03-09 16:02:00,
2013-03-09 08:07:00,31.8,17.5,31.09,SSW,212,0.0,0.0,55,0.00,,---,0.00,VWS V14.01,2013-03-09 16:07:00,
2013-03-09 08:12:00,31.9,17.2,31.09,SW,219,0.0,0.0,54,0.00,,---,0.00,VWS V14.01,2013-03-09 16:12:00,
2013-03-09 08:17:00,32.2,17.4,31.09,SW,217,0.0,0.0,54,0.00,,---,0.00,VWS V14.01,2013-03-09 16:17:00,
2013-03-09 08:22:00,32.4,17.2,31.09,SSW,202,0.0,0.0,53,0.00,,---,0.00,VWS V14.01,2013-03-09 16:22:00,
2013-03-09 08:27:00,33.7,18.0,31.10,SSW,198,0.0,0.0,52,0.00,,---,0.00,VWS V14.01,2013-03-09 16:27:00,
2013-03-09 08:32:00,34.7,18.4,31.10,SSW,200,0.0,0.0,51,0.00,,---,0.00,VWS V14.01,2013-03-09 16:32:00,
2013-03-09 08:38:00,35.2,18.4,31.10,SSW,211,0.0,0.0,50,0.00,,---,0.00,VWS V14.01,2013-03-09 16:38:00,
2013-03-09 08:43:00,35.8,18.5,31.11,SSW,212,0.0,0.0,49,0.00,,---,0.00,VWS V14.01,2013-03-09 16:43:00,
2013-03-09 08:48:00,36.5,19.2,31.11,SSW,192,0.0,0.0,49,0.00,,---,0.00,VWS V14.01,2013-03-09 16:48:00,
2013-03-09 08:53:00,36.8,19.5,31.11,SSW,202,0.0,0.0,49,0.00,,---,0.00,VWS V14.01,2013-03-09 16:53:00,
2013-03-09 08:58:00,36.6,19.3,31.11,SSW,193,0.0,0.0,49,0.00,,---,0.00,VWS V14.01,2013-03-09 16:58:00,
2013-03-09 09:03:00,36.9,20.0,31.11,SSW,194,0.0,0.0,50,0.00,,---,0.00,VWS V14.01,2013-03-09 17:03:00,
2013-03-09 09:08:00,36.5,18.7,31.11,SSW,197,0.0,0.0,48,0.00,,---,0.00,VWS V14.01,2013-03-09 17:08:00,
2013-03-09 09:13:00,37.2,19.8,31.11,SSW,198,0.0,0.0,49,0.00,,---,0.00,VWS V14.01,2013-03-09 17:13:00,
2013-03-09 09:18:00,37.6,20.2,31.11,SSW,193,0.0,0.0,49,0.00,,---,0.00,VWS V14.01,2013-03-09 17:18:00,
2013-03-09 09:23:00,37.6,20.2,31.11,SSW,194,0.0,0.0,49,0.00,,---,0.00,VWS V14.01,2013-03-09 17:23:00,
2013-03-09 09:28:00,37.5,21.0,31.11,South,188,0.0,0.0,51,0.00,,---,0.00,VWS V14.01,2013-03-09 17:28:00,
2013-03-09 09:34:00,37.8,19.9,31.11,SSW,198,0.0,0.0,48,0.00,,---,0.00,VWS V14.01,2013-03-09 17:34:00,
2013-03-09 09:39:00,38.0,20.5,31.11,South,188,0.0,0.0,49,0.00,,---,0.00,VWS V14.01,2013-03-09 17:39:00,
2013-03-09 09:44:00,38.6,20.6,31.12,South,189,0.0,0.0,48,0.00,,---,0.00,VWS V14.01,2013-03-09 17:44:00,
2013-03-09 09:49:00,39.1,22.0,31.12,South,189,0.0,0.0,50,0.00,,---,0.00,VWS V14.01,2013-03-09 17:49:00,
2013-03-09 09:54:00,39.5,21.0,31.12,SSW,209,0.0,0.0,47,0.00,,---,0.00,VWS V14.01,2013-03-09 17:54:00,
2013-03-09 09:59:00,39.6,20.5,31.12,SSW,192,0.0,0.0,46,0.00,,---,0.00,VWS V14.01,2013-03-09 17:59:00,
2013-03-09 10:04:00,39.9,20.3,31.12,SSE,168,0.0,0.0,45,0.00,,---,0.00,VWS V14.01,2013-03-09 18:04:00,
2013-03-09 10:09:00,39.8,20.2,31.12,SSW,196,0.0,0.0,45,0.00,,---,0.00,VWS V14.01,2013-03-09 18:09:00,
2013-03-09 10:14:00,40.2,20.0,31.12,South,188,0.0,0.0,44,0.00,,---,0.00,VWS V14.01,2013-03-09 18:14:00,
2013-03-09 10:19:00,40.3,19.6,31.12,SSW,196,0.0,0.0,43,0.00,,---,0.00,VWS V14.01,2013-03-09 18:19:00,
2013-03-09 10:24:00,40.3,19.6,31.12,SSW,199,0.0,0.0,43,0.00,,---,0.00,VWS V14.01,2013-03-09 18:24:00,
2013-03-09 10:30:00,40.5,19.8,31.13,SW,229,0.0,0.0,43,0.00,,---,0.00,VWS V14.01,2013-03-09 18:30:00,
2013-03-09 10:35:00,40.6,19.3,31.13,SSW,212,0.0,0.0,42,0.00,,---,0.00,VWS V14.01,2013-03-09 18:35:00,
2013-03-09 10:40:00,40.6,19.9,31.13,SSW,213,0.0,0.0,43,0.00,,---,0.00,VWS V14.01,2013-03-09 18:40:00,
2013-03-09 10:45:00,41.2,19.9,31.13,South,188,0.0,0.0,42,0.00,,---,0.00,VWS V14.01,2013-03-09 18:45:00,
2013-03-09 10:50:00,41.6,19.7,31.13,SSW,196,0.0,0.0,41,0.00,,---,0.00,VWS V14.01,2013-03-09 18:50:00,
2013-03-09 10:55:00,41.6,19.1,31.13,SSW,194,0.0,0.0,40,0.00,,---,0.00,VWS V14.01,2013-03-09 18:55:00,
2013-03-09 11:00:00,41.8,18.7,31.13,SW,223,0.0,0.0,39,0.00,,---,0.00,VWS V14.01,2013-03-09 19:00:00,
2013-03-09 11:05:00,41.5,18.4,31.13,NW,313,0.0,0.0,39,0.00,,---,0.00,VWS V14.01,2013-03-09 19:05:00,
2013-03-09 11:10:00,41.6,17.9,31.13,NW,313,0.0,0.0,38,0.00,,---,0.00,VWS V14.01,2013-03-09 19:10:00,
2013-03-09 11:15:00,41.6,17.9,31.13,NE,38,0.0,0.0,38,0.00,,---,0.00,VWS V14.01,2013-03-09 19:15:00,
2013-03-09 11:20:00,41.8,20.4,31.13,NNE,31,0.0,0.0,42,0.00,,---,0.00,VWS V14.01,2013-03-09 19:20:00,
2013-03-09 11:26:00,42.6,20.6,31.14,East,98,0.0,0.0,41,0.00,,---,0.00,VWS V14.01,2013-03-09 19:26:00,
2013-03-09 11:31:00,42.8,18.4,31.14,NE,44,0.0,0.0,37,0.00,,---,0.00,VWS V14.01,2013-03-09 19:31:00,
2013-03-09 11:36:00,42.8,17.7,31.14,NNW,329,0.0,0.0,36,0.00,,---,0.00,VWS V14.01,2013-03-09 19:36:00,
2013-03-09 11:41:00,42.5,16.8,31.14,NW,315,0.0,0.0,35,0.00,,---,0.00,VWS V14.01,2013-03-09 19:41:00,
2013-03-09 11:46:00,42.3,16.6,31.13,North,355,0.0,0.0,35,0.00,,---,0.00,VWS V14.01,2013-03-09 19:46:00,
2013-03-09 11:51:00,42.8,16.4,31.14,North,355,0.0,0.0,34,0.00,,---,0.00,VWS V14.01,2013-03-09 19:51:00,
2013-03-09 11:56:00,42.8,15.7,31.14,NNW,344,0.0,0.0,33,0.00,,---,0.00,VWS V14.01,2013-03-09 19:56:00,
2013-03-09 12:01:00,43.5,14.9,31.14,NNE,28,0.0,0.0,31,0.00,,---,0.00,VWS V14.01,2013-03-09 20:01:00,
2013-03-09 12:07:00,43.3,12.4,31.14,NNE,28,0.0,0.0,28,0.00,,---,0.00,VWS V14.01,2013-03-09 20:07:00,
2013-03-09 12:12:00,43.8,15.1,31.14,North,9,0.0,0.0,31,0.00,,---,0.00,VWS V14.01,2013-03-09 20:12:00,
2013-03-09 12:17:00,43.9,12.1,31.14,North,5,0.0,0.0,27,0.00,,---,0.00,VWS V14.01,2013-03-09 20:17:00,
2013-03-09 12:22:00,43.9,12.9,31.14,NNE,19,0.0,0.0,28,0.00,,---,0.00,VWS V14.01,2013-03-09 20:22:00,
2013-03-09 12:27:00,44.3,13.3,31.14,North,351,0.0,0.0,28,0.00,,---,0.00,VWS V14.01,2013-03-09 20:27:00,
2013-03-09 12:32:00,44.1,14.7,31.14,NNW,340,0.0,0.0,30,0.00,,---,0.00,VWS V14.01,2013-03-09 20:32:00,
2013-03-09 12:37:00,44.2,13.2,31.14,NNW,333,0.0,0.0,28,0.00,,---,0.00,VWS V14.01,2013-03-09 20:37:00,
2013-03-09 12:42:00,44.2,12.4,31.14,NNW,346,0.0,0.0,27,0.00,,---,0.00,VWS V14.01,2013-03-09 20:42:00,
2013-03-09 12:47:00,44.6,12.7,31.15,NNW,346,0.0,0.0,27,0.00,,---,0.00,VWS V14.01,2013-03-09 20:47:00,
2013-03-09 12:53:00,44.5,12.6,31.15,NNE,23,0.0,0.0,27,0.00,,---,0.00,VWS V14.01,2013-03-09 20:53:00,
2013-03-09 12:58:00,45.1,14.0,31.15,NNE,17,0.0,0.0,28,0.00,,---,0.00,VWS V14.01,2013-03-09 20:58:00,
2013-03-09 13:03:00,45.5,12.6,31.15,North,5,0.0,0.0,26,0.00,,---,0.00,VWS V14.01,2013-03-09 21:03:00,
2013-03-09 13:08:00,45.7,11.9,31.15,West,268,0.0,0.0,25,0.00,,---,0.00,VWS V14.01,2013-03-09 21:08:00,
2013-03-09 13:13:00,45.8,12.0,31.15,NW,321,0.0,0.0,25,0.00,,---,0.00,VWS V14.01,2013-03-09 21:13:00,
2013-03-09 13:18:00,45.7,10.0,31.15,North,355,0.0,0.0,23,0.00,,---,0.00,VWS V14.01,2013-03-09 21:18:00,
2013-03-09 13:23:00,45.8,11.1,31.15,NW,325,0.0,0.0,24,0.00,,---,0.00,VWS V14.01,2013-03-09 21:23:00,
2013-03-09 13:29:00,46.0,13.1,31.15,NNE,13,0.0,0.0,26,0.00,,---,0.00,VWS V14.01,2013-03-09 21:29:00,
2013-03-09 13:34:00,45.8,12.0,31.15,NNE,33,0.0,0.0,25,0.00,,---,0.00,VWS V14.01,2013-03-09 21:34:00,
2013-03-09 13:39:00,45.8,12.9,31.15,North,350,0.0,0.0,26,0.00,,---,0.00,VWS V14.01,2013-03-09 21:39:00,
2013-03-09 13:44:00,45.7,13.6,31.15,NNE,32,0.0,0.0,27,0.00,,---,0.00,VWS V14.01,2013-03-09 21:44:00,
2013-03-09 13:49:00,46.0,12.2,31.15,NW,312,0.0,0.0,25,0.00,,---,0.00,VWS V14.01,2013-03-09 21:49:00,
2013-03-09 13:54:00,46.5,13.5,31.15,NNE,16,0.0,0.0,26,0.00,,---,0.00,VWS V14.01,2013-03-09 21:54:00,
2013-03-09 13:59:00,46.0,12.2,31.15,ENE,60,0.0,0.0,25,0.00,,---,0.00,VWS V14.01,2013-03-09 21:59:00,
2013-03-09 14:04:00,46.0,13.1,31.15,North,351,0.0,0.0,26,0.00,,---,0.00,VWS V14.01,2013-03-09 22:04:00,
2013-03-09 14:09:00,46.2,14.1,31.15,North,355,0.0,0.0,27,0.00,,---,0.00,VWS V14.01,2013-03-09 22:09:00,
2013-03-09 14:14:00,46.1,13.1,31.15,NNW,327,0.0,0.0,26,0.00,,---,0.00,VWS V14.01,2013-03-09 22:14:00,
2013-03-09 14:19:00,46.1,14.0,31.15,NNW,329,0.0,0.0,27,0.00,,---,0.00,VWS V14.01,2013-03-09 22:19:00,
2013-03-09 14:24:00,46.2,14.1,31.15,North,355,0.0,0.0,27,0.00,,---,0.00,VWS V14.01,2013-03-09 22:24:00,
2013-03-09 14:29:00,46.4,13.4,31.15,North,349,0.0,0.0,26,0.00,,---,0.00,VWS V14.01,2013-03-09 22:29:00,
2013-03-09 14:34:00,46.4,12.5,31.15,NW,321,0.0,0.0,25,0.00,,---,0.00,VWS V14.01,2013-03-09 22:34:00,
2013-03-09 14:40:00,46.4,14.2,31.15,NE,43,0.0,0.0,27,0.00,,---,0.00,VWS V14.01,2013-03-09 22:40:00,
2013-03-09 14:45:00,46.4,15.1,31.15,North,11,0.0,0.0,28,0.00,,---,0.00,VWS V14.01,2013-03-09 22:45:00,
2013-03-09 14:50:00,46.8,13.7,31.15,NNE,15,0.0,0.0,26,0.00,,---,0.00,VWS V14.01,2013-03-09 22:50:00,
2013-03-09 14:55:00,46.5,12.6,31.15,North,355,0.0,0.0,25,0.00,,---,0.00,VWS V14.01,2013-03-09 22:55:00,
2013-03-09 15:00:00,46.8,14.6,31.15,North,10,0.0,0.0,27,0.00,,---,0.00,VWS V14.01,2013-03-09 23:00:00,
2013-03-09 15:05:00,46.4,14.2,31.14,NNE,21,0.0,0.0,27,0.00,,---,0.00,VWS V14.01,2013-03-09 23:05:00,
2013-03-09 15:10:00,46.5,14.3,31.15,NNE,23,0.0,0.0,27,0.00,,---,0.00,VWS V14.01,2013-03-09 23:10:00,
2013-03-09 15:15:00,46.5,13.5,31.15,North,355,0.0,0.0,26,0.00,,---,0.00,VWS V14.01,2013-03-09 23:15:00,
2013-03-09 15:20:00,46.5,13.5,31.15,North,351,0.0,0.0,26,0.00,,---,0.00,VWS V14.01,2013-03-09 23:20:00,
2013-03-09 15:25:00,46.7,14.5,31.15,WNW,301,0.0,0.0,27,0.00,,---,0.00,VWS V14.01,2013-03-09 23:25:00,
2013-03-09 15:30:00,46.7,14.5,31.15,NNW,342,0.0,0.0,27,0.00,,---,0.00,VWS V14.01,2013-03-09 23:30:00,
2013-03-09 15:35:00,46.8,14.6,31.15,NNW,343,0.0,0.0,27,0.00,,---,0.00,VWS V14.01,2013-03-09 23:35:00,
2013-03-09 15:40:00,46.8,14.6,31.15,NW,315,0.0,0.0,27,0.00,,---,0.00,VWS V14.01,2013-03-09 23:40:00,
2013-03-09 15:46:00,46.7,14.5,31.15,North,355,0.0,0.0,27,0.00,,---,0.00,VWS V14.01,2013-03-09 23:46:00,
2013-03-09 15:51:00,46.5,14.3,31.15,North,355,0.0,0.0,27,0.00,,---,0.00,VWS V14.01,2013-03-09 23:51:00,
2013-03-09 15:56:00,46.5,15.2,31.14,NNW,342,0.0,0.0,28,0.00,,---,0.00,VWS V14.01,2013-03-09 23:56:00,
2013-03-09 16:01:00,46.5,15.2,29.80,NNW,340,0.0,0.0,28,0.00,,---,0.00,VWS V14.01,2013-03-10 00:01:00,
2013-03-09 16:06:00,46.4,15.1,31.15,NNW,348,0.0,0.0,28,0.00,,---,0.00,VWS V14.01,2013-03-10 00:06:00,
2013-03-09 16:11:00,46.4,14.2,29.80,NNW,347,0.0,0.0,27,0.00,,---,0.00,VWS V14.01,2013-03-10 00:11:00,
2013-03-09 16:16:00,46.5,15.2,31.15,NNW,332,0.0,0.0,28,0.00,,---,0.00,VWS V14.01,2013-03-10 00:16:00,
2013-03-09 16:21:00,46.4,15.1,31.15,NNW,340,0.0,0.0,28,0.00,,---,0.00,VWS V14.01,2013-03-10 00:21:00,
2013-03-09 16:26:00,46.2,14.9,31.15,NW,308,0.0,0.0,28,0.00,,---,0.00,VWS V14.01,2013-03-10 00:26:00,
2013-03-09 16:31:00,46.2,14.9,31.15,NW,317,0.0,0.0,28,0.00,,---,0.00,VWS V14.01,2013-03-10 00:31:00,
2013-03-09 16:36:00,46.1,15.6,31.15,NNW,336,0.0,0.0,29,0.00,,---,0.00,VWS V14.01,2013-03-10 00:36:00,
2013-03-09 16:41:00,46.1,14.8,31.15,NW,323,0.0,0.0,28,0.00,,---,0.00,VWS V14.01,2013-03-10 00:41:00,
2013-03-09 16:47:00,46.1,15.6,31.15,NW,325,0.0,0.0,29,0.00,,---,0.00,VWS V14.01,2013-03-10 00:47:00,
2013-03-09 16:52:00,46.0,16.3,31.15,NNW,341,0.0,0.0,30,0.00,,---,0.00,VWS V14.01,2013-03-10 00:52:00,
2013-03-09 16:57:00,45.7,15.3,31.15,NNW,335,0.0,0.0,29,0.00,,---,0.00,VWS V14.01,2013-03-10 00:57:00,
2013-03-09 17:02:00,45.7,15.3,31.15,North,350,0.0,0.0,29,0.00,,---,0.00,VWS V14.01,2013-03-10 01:02:00,
2013-03-09 17:07:00,45.5,15.9,31.15,NW,325,0.0,0.0,30,0.00,,---,0.00,VWS V14.01,2013-03-10 01:07:00,
2013-03-09 17:12:00,45.5,15.9,31.15,North,351,0.0,0.0,30,0.00,,---,0.00,VWS V14.01,2013-03-10 01:12:00,
2013-03-09 17:17:00,45.5,17.4,31.15,NNW,334,0.0,0.0,32,0.00,,---,0.00,VWS V14.01,2013-03-10 01:17:00,
2013-03-09 17:22:00,45.4,18.0,31.14,NW,319,0.0,0.0,33,0.00,,---,0.00,VWS V14.01,2013-03-10 01:22:00,
2013-03-09 17:27:00,45.2,17.8,31.14,NNW,331,0.0,0.0,33,0.00,,---,0.00,VWS V14.01,2013-03-10 01:27:00,
2013-03-09 17:32:00,45.1,17.7,31.14,NW,322,0.0,0.0,33,0.00,,---,0.00,VWS V14.01,2013-03-10 01:32:00,
2013-03-09 17:38:00,45.1,17.7,31.14,NNW,333,0.0,0.0,33,0.00,,---,0.00,VWS V14.01,2013-03-10 01:38:00,
2013-03-09 17:43:00,44.9,18.2,31.14,NNW,329,0.0,0.0,34,0.00,,---,0.00,VWS V14.01,2013-03-10 01:43:00,
2013-03-09 17:48:00,44.6,18.0,31.14,NNW,327,0.0,0.0,34,0.00,,---,0.00,VWS V14.01,2013-03-10 01:48:00,
2013-03-09 17:53:00,44.5,18.6,31.14,NW,321,0.0,0.0,35,0.00,,---,0.00,VWS V14.01,2013-03-10 01:53:00,
2013-03-09 17:58:00,44.3,18.4,31.14,NW,318,0.0,0.0,35,0.00,,---,0.00,VWS V14.01,2013-03-10 01:58:00,
2013-03-09 18:03:00,44.1,18.9,31.14,NW,317,0.0,0.0,36,0.00,,---,0.00,VWS V14.01,2013-03-10 02:03:00,
2013-03-09 18:08:00,43.9,18.7,31.13,NW,309,0.0,0.0,36,0.00,,---,0.00,VWS V14.01,2013-03-10 02:08:00,
2013-03-09 18:13:00,43.8,19.2,31.13,WNW,295,0.0,0.0,37,0.00,,---,0.00,VWS V14.01,2013-03-10 02:13:00,
2013-03-09 18:19:00,43.5,19.6,31.13,WNW,293,0.0,0.0,38,0.00,,---,0.00,VWS V14.01,2013-03-10 02:19:00,
2013-03-09 18:24:00,43.3,19.4,31.13,WNW,299,0.0,0.0,38,0.00,,---,0.00,VWS V14.01,2013-03-10 02:24:00,
2013-03-09 18:29:00,43.3,18.8,31.13,WNW,296,0.0,0.0,37,0.00,,---,0.00,VWS V14.01,2013-03-10 02:29:00,
2013-03-09 18:34:00,43.2,18.7,31.13,WNW,299,0.0,0.0,37,0.00,,---,0.00,VWS V14.01,2013-03-10 02:34:00,
2013-03-09 18:39:00,43.3,18.8,31.13,WNW,300,0.0,0.0,37,0.00,,---,0.00,VWS V14.01,2013-03-10 02:39:00,
2013-03-09 18:44:00,43.2,18.7,31.13,WNW,297,0.0,0.0,37,0.00,,---,0.00,VWS V14.01,2013-03-10 02:44:00,
2013-03-09 18:49:00,43.1,18.6,31.13,WNW,301,0.0,0.0,37,0.00,,---,0.00,VWS V14.01,2013-03-10 02:49:00,
2013-03-09 18:55:00,42.9,18.4,31.13,WNW,294,0.0,0.0,37,0.00,,---,0.00,VWS V14.01,2013-03-10 02:55:00,
2013-03-09 19:00:00,42.6,18.2,31.13,WNW,288,0.0,0.0,37,0.00,,---,0.00,VWS V14.01,2013-03-10 03:00:00,
2013-03-09 19:05:00,42.6,18.2,31.13,WNW,291,0.0,0.0,37,0.00,,---,0.00,VWS V14.01,2013-03-10 03:05:00,
2013-03-09 19:10:00,42.3,18.5,31.13,WNW,290,0.0,0.0,38,0.00,,---,0.00,VWS V14.01,2013-03-10 03:10:00,
2013-03-09 19:15:00,42.3,18.5,31.13,WNW,284,0.0,0.0,38,0.00,,---,0.00,VWS V14.01,2013-03-10 03:15:00,
2013-03-09 19:20:00,42.5,17.4,31.13,West,277,0.0,0.0,36,0.00,,---,0.00,VWS V14.01,2013-03-10 03:20:00,
2013-03-09 19:25:00,42.5,17.4,31.13,WNW,284,0.0,0.0,36,0.00,,---,0.00,VWS V14.01,2013-03-10 03:25:00,
2013-03-09 19:31:00,42.3,16.6,31.13,West,275,0.0,0.0,35,0.00,,---,0.00,VWS V14.01,2013-03-10 03:31:00,
2013-03-09 19:36:00,42.2,15.9,31.13,West,276,0.0,0.0,34,0.00,,---,0.00,VWS V14.01,2013-03-10 03:36:00,
2013-03-09 19:41:00,42.2,15.2,31.13,West,276,0.0,0.0,33,0.00,,---,0.00,VWS V14.01,2013-03-10 03:41:00,
2013-03-09 19:46:00,42.3,13.8,31.13,WNW,288,0.0,0.0,31,0.00,,---,0.00,VWS V14.01,2013-03-10 03:46:00,
2013-03-09 19:51:00,42.5,14.0,31.13,WNW,297,0.0,0.0,31,0.00,,---,0.00,VWS V14.01,2013-03-10 03:51:00,
2013-03-09 19:56:00,42.6,14.1,31.13,WNW,299,0.0,0.0,31,0.00,,---,0.00,VWS V14.01,2013-03-10 03:56:00,
2013-03-09 20:01:00,42.5,14.0,31.13,WNW,298,0.0,0.0,31,0.00,,---,0.00,VWS V14.01,2013-03-10 04:01:00,
2013-03-09 20:06:00,42.6,14.1,31.16,WNW,290,0.0,0.0,31,0.00,,---,0.00,VWS V14.01,2013-03-10 04:06:00,
2013-03-09 20:12:00,42.5,14.0,31.16,WNW,291,0.0,0.0,31,0.00,,---,0.00,VWS V14.01,2013-03-10 04:12:00,
2013-03-09 20:17:00,42.5,14.0,31.16,WNW,293,0.0,0.0,31,0.00,,---,0.00,VWS V14.01,2013-03-10 04:17:00,
2013-03-09 20:22:00,42.5,14.0,31.16,WNW,295,0.0,0.0,31,0.00,,---,0.00,VWS V14.01,2013-03-10 04:22:00,
2013-03-09 20:27:00,42.3,14.6,31.15,WNW,299,0.0,0.0,32,0.00,,---,0.00,VWS V14.01,2013-03-10 04:27:00,
2013-03-09 20:32:00,42.5,14.0,31.16,WNW,300,0.0,0.0,31,0.00,,---,0.00,VWS V14.01,2013-03-10 04:32:00,
2013-03-09 20:37:00,42.5,14.0,31.16,WNW,300,0.0,0.0,31,0.00,,---,0.00,VWS V14.01,2013-03-10 04:37:00,
2013-03-09 20:42:00,42.5,13.3,31.16,WNW,301,0.0,0.0,30,0.00,,---,0.00,VWS V14.01,2013-03-10 04:42:00,
2013-03-09 20:47:00,42.6,14.1,31.16,NW,309,0.0,0.0,31,0.00,,---,0.00,VWS V14.01,2013-03-10 04:47:00,
2013-03-09 20:53:00,42.5,14.0,31.16,NW,310,0.0,0.0,31,0.00,,---,0.00,VWS V14.01,2013-03-10 04:53:00,
2013-03-09 20:58:00,42.5,13.3,31.16,NW,310,0.0,0.0,30,0.00,,---,0.00,VWS V14.01,2013-03-10 04:58:00,
2013-03-09 21:00:00,42.3,13.8,31.15,NW,309,0.0,0.0,31,0.00,,---,0.00,VWS V14.01,2013-03-10 05:00:00,
2013-03-09 21:01:00,42.3,13.8,31.15,NW,309,0.0,0.0,31,0.00,,---,0.00,VWS V14.01,2013-03-10 05:01:00,
2013-03-09 21:06:00,42.2,13.0,31.17,NW,309,0.0,0.0,30,0.00,,---,0.00,VWS V14.01,2013-03-10 05:06:00,
2013-03-09 21:11:00,42.2,13.0,31.17,NW,319,0.0,0.0,30,0.00,,---,0.00,VWS V14.01,2013-03-10 05:11:00,
2013-03-09 21:16:00,41.9,12.0,31.17,NW,319,0.0,0.0,29,0.00,,---,0.00,VWS V14.01,2013-03-10 05:16:00,
2013-03-09 21:21:00,41.6,12.5,31.17,NW,319,0.0,0.0,30,0.00,,---,0.00,VWS V14.01,2013-03-10 05:21:00,
2013-03-09 21:27:00,41.5,13.1,31.17,NW,317,0.0,0.0,31,0.00,,---,0.00,VWS V14.01,2013-03-10 05:27:00,
2013-03-09 21:32:00,41.2,14.3,31.16,NW,315,0.0,0.0,33,0.00,,---,0.00,VWS V14.01,2013-03-10 05:32:00,
2013-03-09 21:37:00,41.2,15.6,31.16,NW,314,0.0,0.0,35,0.00,,---,0.00,VWS V14.01,2013-03-10 05:37:00,
2013-03-09 21:42:00,41.1,15.6,31.16,NW,314,0.0,0.0,35,0.00,,---,0.00,VWS V14.01,2013-03-10 05:42:00,
2013-03-09 21:47:00,40.8,15.3,31.16,NW,315,0.0,0.0,35,0.00,,---,0.00,VWS V14.01,2013-03-10 05:47:00,
2013-03-09 21:52:00,40.9,16.0,31.16,NW,317,0.0,0.0,36,0.00,,---,0.00,VWS V14.01,2013-03-10 05:52:00,
2013-03-09 21:57:00,40.9,15.4,31.16,NW,317,0.0,0.0,35,0.00,,---,0.00,VWS V14.01,2013-03-10 05:57:00,
2013-03-09 22:02:00,41.1,15.6,31.16,NW,304,0.0,0.0,35,0.00,,---,0.00,VWS V14.01,2013-03-10 06:02:00,
2013-03-09 22:07:00,40.8,15.3,31.17,WNW,300,0.0,0.0,35,0.00,,---,0.00,VWS V14.01,2013-03-10 06:07:00,
2013-03-09 22:12:00,40.8,15.9,31.17,WNW,303,0.0,0.0,36,0.00,,---,0.00,VWS V14.01,2013-03-10 06:12:00,
2013-03-09 22:17:00,41.1,16.2,31.17,WNW,303,0.0,0.0,36,0.00,,---,0.00,VWS V14.01,2013-03-10 06:17:00,
2013-03-09 22:22:00,41.3,17.0,31.17,WNW,303,0.0,0.0,37,0.00,,---,0.00,VWS V14.01,2013-03-10 06:22:00,
2013-03-09 22:27:00,41.1,16.8,31.17,WNW,303,0.0,0.0,37,0.00,,---,0.00,VWS V14.01,2013-03-10 06:27:00,
2013-03-09 22:33:00,39.9,16.4,31.17,WNW,303,0.0,0.0,38,0.00,,---,0.00,VWS V14.01,2013-03-10 06:33:00,
2013-03-09 22:38:00,39.5,16.6,31.17,WNW,303,0.0,0.0,39,0.00,,---,0.00,VWS V14.01,2013-03-10 06:38:00,
2013-03-09 22:43:00,39.9,16.4,31.17,WNW,303,0.0,0.0,38,0.00,,---,0.00,VWS V14.01,2013-03-10 06:43:00,
2013-03-09 22:48:00,40.1,14.0,31.17,SSW,193,0.0,0.0,34,0.00,,---,0.00,VWS V14.01,2013-03-10 06:48:00,
2013-03-09 22:53:00,39.6,13.6,31.17,SSW,198,0.0,0.0,34,0.00,,---,0.00,VWS V14.01,2013-03-10 06:53:00,
2013-03-09 22:58:00,38.8,14.1,31.16,SSW,202,0.0,0.0,36,0.00,,---,0.00,VWS V14.01,2013-03-10 06:58:00,
2013-03-09 23:03:00,38.5,13.9,31.16,SSW,198,0.0,0.0,36,0.00,,---,0.00,VWS V14.01,2013-03-10 07:03:00,
2013-03-09 23:08:00,38.5,15.7,31.17,SSW,198,0.0,0.0,39,0.00,,---,0.00,VWS V14.01,2013-03-10 07:08:00,
2013-03-09 23:13:00,38.5,15.7,31.17,SSW,199,0.0,0.0,39,0.00,,---,0.00,VWS V14.01,2013-03-10 07:13:00,
2013-03-09 23:18:00,38.5,16.3,31.17,SSW,201,0.0,0.0,40,0.00,,---,0.00,VWS V14.01,2013-03-10 07:18:00,
2013-03-09 23:23:00,38.2,16.6,31.16,SSW,203,0.0,0.0,41,0.00,,---,0.00,VWS V14.01,2013-03-10 07:23:00,
2013-03-09 23:29:00,37.9,16.9,31.16,SSW,196,0.0,0.0,42,0.00,,---,0.00,VWS V14.01,2013-03-10 07:29:00,
2013-03-09 23:34:00,37.5,17.6,31.16,SSW,196,0.0,0.0,44,0.00,,---,0.00,VWS V14.01,2013-03-10 07:34:00,
2013-03-09 23:39:00,37.0,18.2,31.16,SSW,199,0.0,0.0,46,0.00,,---,0.00,VWS V14.01,2013-03-10 07:39:00,
2013-03-09 23:44:00,36.6,18.3,31.16,SSW,199,0.0,0.0,47,0.00,,---,0.00,VWS V14.01,2013-03-10 07:44:00,
2013-03-09 23:49:00,36.8,19.0,31.16,SSW,198,0.0,0.0,48,0.00,,---,0.00,VWS V14.01,2013-03-10 07:49:00,
2013-03-09 23:54:00,36.6,19.3,31.16,SSW,194,0.0,0.0,49,0.00,,---,0.00,VWS V14.01,2013-03-10 07:54:00,
2013-03-09 23:59:00,36.6,19.3,31.16,SSW,196,0.0,0.0,49,0.00,,---,0.00,VWS V14.01,2013-03-10 07:59:00,